date,batt_volt,AirTemp_C,Solar_kW,RH,Manual_BP,StationID,WS_ms,PTemp,WS_15min_max,Prog_Sig,Solar_Raw,Bar_mbar,Solar_MJ,Max_WS_2min,Pressure_Raw,Rain_mm,WD_15min_ave,Max_AirTemp_1min,WindDir,WS_15min_med,WS_15min_ave,Elevation_Correction
2023-12-01T00:00:00Z,13.53826,2.905621,0.0,100.1357,0,1156,7.996799,3.978317,10.1136,43690,0.0,1017.035,0.0,8.33,1015.234,0,203.072835278,3.924,212.0118,8.447599,8.43364913529,1.80078
2023-12-01T00:14:59Z,13.53826,3.007454,0.0,100.1357,0,1156,7.5264,3.892464,10.388,43690,0.0,1017.687,0.0,10.39,1015.886,0,204.967283981,3.415,200.3472,8.1536,8.15023640828,1.80078
2023-12-01T00:29:59Z,13.53273,2.973511,0.0,100.1018,0,1156,10.4076,3.93539,11.4268,43690,0.0,1017.687,0.0,11.43,1015.886,0,203.648489293,2.94,213.7952,8.5848,8.61657730178,1.80078
2023-12-01T00:44:58Z,13.53273,2.973511,0.0,100.1018,0,1156,8.251599,3.99865,11.3092,43690,0.0,1017.687,0.0,9.74,1015.886,0,203.574255072,4.06,195.7199,8.9964,8.9795832426,1.80078
2023-12-01T00:59:57Z,13.53826,2.803787,0.0,100.1697,0,1156,7.84,3.892464,11.8384,43690,0.0,1017.687,0.0,11.41,1015.886,0,205.644253002,3.415,193.1653,9.408,9.37668613609,1.80078
2023-12-01T01:15:02Z,13.54378,2.803787,0.0,100.0679,0,1156,10.5252,3.849537,11.4072,43690,0.0,1017.442,0.0,11.41,1015.641,0,206.59085119,2.906,203.9141,9.1728,9.12472211176,1.80078
2023-12-01T01:30:01Z,13.53826,2.973511,0.0,100.1357,0,1156,9.0552,3.849537,13.23,43690,0.0,1017.442,0.0,11.21,1015.641,0,207.706377564,3.381,208.4931,10.5644,10.4636164793,1.80078
2023-12-01T01:45:03Z,13.53826,4.70467,0.0,100.1357,0,1156,9.505999,3.806614,12.5636,43690,0.0,1017.442,0.0,11.27,1015.641,0,209.062115889,4.705,211.6985,10.0352,10.0428542959,1.80078
2023-12-01T01:59:58Z,13.52167,5.078056,0.0,100.1357,0,1156,8.1144,4.064167,12.5048,43690,0.0,1017.442,0.0,11.45,1015.641,0,210.033890067,5.146,213.6507,10.3096,10.3846165536,1.80078
2023-12-01T02:15:00Z,13.51061,3.92395,0.0,100.1357,0,1156,9.2316,4.470833,13.1712,43690,0.0,1018.094,0.0,10.66,1016.293,0,207.59281739,3.822,203.5526,9.741199,9.81774418343,1.80078
2023-12-01T02:30:01Z,13.50444,3.71915,0.0,100.0992,0,1156,10.2704,4.816498,11.6816,43690,0.0,1018.094,0.0,11.68,1016.293,0,206.558060457,3.788,208.6805,9.937199,9.81971578698,1.80078
2023-12-01T02:45:04Z,13.492,3.780609,0.0,100.1524,0,1156,10.1332,5.05146,12.8968,43690,0.0,1018.094,0.0,11.21,1016.293,0,208.432791572,3.916,208.5776,9.9665995,10.0018797882,1.80078
2023-12-01T03:00:00Z,13.49173,3.712795,0.0,100.0847,0,1156,10.2116,5.202831,12.6028,43690,0.0,1018.094,0.0,12.74,1016.293,0,207.04893692,3.882,205.5177,10.6624,10.5950176746,1.80078
2023-12-01T03:15:03Z,13.49175,3.780754,0.0,100.1188,0,1156,10.8192,5.311276,13.5632,43690,0.0,1017.924,0.0,12.03,1016.123,0,204.543444314,3.883,202.7711,10.535,10.4523340118,1.80078
2023-12-01T03:30:04Z,13.49175,4.052261,0.0,100.1188,0,1156,10.2704,5.41972,12.9752,43690,0.0,1017.924,0.0,12.07,1016.123,0,206.697778926,4.086,200.1205,10.584,10.5368446294,1.80078
2023-12-01T03:45:01Z,13.49175,3.882568,0.0,100.1188,0,1156,10.0352,5.50557,13.4456,43690,0.0,1017.924,0.0,13.23,1016.123,0,203.947385637,3.984,207.3494,11.4464,11.2448330888,1.80078
2023-12-01T04:00:03Z,13.48622,3.780163,0.0,100.1514,0,1156,10.4076,5.571087,12.936,43690,0.0,1017.924,0.0,12.29,1016.123,0,204.122695189,3.917,209.3706,10.4958,10.3228587353,1.80078
2023-12-01T04:15:04Z,13.4862,3.508228,0.0,100.1504,0,1156,11.6424,5.571087,11.0544,43690,0.0,1018.244,0.0,10.72,1016.443,0,202.36697994,3.679,204.0193,9.4472,9.30723271176,1.80078
2023-12-01T04:30:01Z,13.49151,3.169415,0.0,100.0838,0,1156,8.3104,5.462643,11.6424,43690,0.0,1018.244,0.0,9.8,1016.443,0,197.377153941,3.339,191.6847,8.5652,8.56891107101,1.80078
2023-12-01T04:45:04Z,13.49727,3.135914,0.0,100.1188,0,1156,8.231999,5.397125,11.8972,43690,0.0,1018.244,0.0,9.019999,1016.443,0,194.33676706,3.272,188.1686,8.3104,8.39410330588,1.80078
2023-12-01T05:00:06Z,13.49727,3.237736,0.0,100.1527,0,1156,9.0552,5.354198,12.0736,43690,0.0,1018.244,0.0,11.15,1016.443,0,196.668010579,3.272,209.6626,8.7513995,8.82195975294,1.80078
2023-12-01T05:15:03Z,13.49175,3.271675,0.0,100.1188,0,1156,6.958,5.311276,11.1524,43690,0.0,1017.844,0.0,9.49,1016.043,0,198.796900192,3.475,188.6265,8.5064,8.48737964497,1.80078
2023-12-01T05:30:06Z,13.49175,3.543182,0.0,100.1527,0,1156,10.4664,5.311276,10.4664,43690,0.0,1017.844,0.0,9.58,1016.043,0,199.946735372,3.679,211.5422,8.241799,8.25644212941,1.80078
2023-12-01T05:45:04Z,13.48622,3.441368,0.0,100.1188,0,1156,7.271599,5.354198,11.3288,43690,0.0,1017.844,0.0,11.33,1016.043,0,192.664997205,4.12,186.4096,7.7812,7.80671453846,1.80078
2023-12-01T06:00:06Z,13.48622,3.441322,0.0,100.1866,0,1156,8.643599,5.397125,11.1328,43690,0.0,1017.844,0.0,9.9,1016.043,0,190.860048221,3.611,188.4094,8.5456,8.44356454706,1.80078
2023-12-01T06:15:08Z,13.48622,3.543182,0.0,100.0848,0,1156,6.86,5.440052,10.8976,43690,0.0,1017.762,0.0,10.58,1015.961,0,189.309435117,3.441,195.9036,8.5162,8.55563029412,1.80078
2023-12-01T06:30:03Z,13.48622,3.543182,0.0,100.1527,0,1156,7.9576,5.462643,10.5644,43690,0.0,1017.762,0.0,9.349999,1015.961,0,190.049979008,3.509,185.9036,8.1144,8.14524949112,1.80078
2023-12-01T06:45:06Z,13.49175,3.577122,0.0,100.1188,0,1156,7.663599,5.485237,9.9764,43690,0.0,1017.762,0.0,7.82,1015.961,0,188.64553851,3.645,185.0602,7.2225995,7.32671043529,1.80078
2023-12-01T07:00:07Z,13.49175,3.644909,0.0,100.0846,0,1156,7.0364,5.52816,10.0548,43690,0.0,1017.762,0.0,9.33,1015.961,0,189.132115726,4.731,186.843,7.1736,7.10615277059,1.80078
2023-12-01T07:15:08Z,13.48576,3.678936,0.0,100.0848,0,1156,8.722,5.548496,9.408,43690,0.0,1017.435,0.0,7.997,1015.634,0,195.05625253,3.747,193.8554,6.0564,6.11047287647,1.80078
2023-12-01T07:30:04Z,13.48621,4.12014,0.0,100.1527,0,1156,7.369599,5.636604,10.5448,43690,0.0,1017.435,0.0,10.54,1015.634,0,190.049782682,4.188,190.506,7.7812,7.8743288284,1.80078
2023-12-01T07:45:06Z,13.48015,3.812603,0.0,100.1479,0,1156,6.958,5.765385,11.0348,43690,0.0,1017.435,0.0,11.03,1015.634,0,189.880549883,4.22,184.3767,8.3202,8.27927037647,1.80078
2023-12-01T08:00:07Z,13.47324,4.31768,0.0,100.139,0,1156,8.5064,5.851238,10.7408,43690,0.0,1017.435,0.0,9.599999,1015.634,0,190.955922736,4.352,201.0808,8.428,8.23926334706,1.80078
2023-12-01T08:15:08Z,13.47295,4.24923,0.0,100.1037,0,1156,10.4076,5.873829,11.2308,43690,0.0,1017.121,0.0,9.45,1015.32,0,194.037152439,4.521,192.0192,8.4672,8.47135034118,1.80078
2023-12-01T08:30:09Z,13.46738,5.436092,0.0,100.1698,0,1156,9.525599,5.916752,11.4072,43690,0.0,1017.121,0.0,10.21,1015.32,0,198.692184779,6.149,208.9286,8.6044,8.61558332353,1.80078
2023-12-01T08:45:05Z,13.4674,4.893154,0.0,100.1358,0,1156,11.0152,6.025196,12.8576,43690,0.0,1017.121,0.0,9.84,1015.32,0,202.938209557,5.029,204.9293,9.368799,9.41229090533,1.80078
2023-12-01T09:00:08Z,13.46736,4.791336,0.0,100.1358,0,1156,9.1532,6.156231,12.3284,43690,0.0,1017.121,0.0,9.679999,1015.32,0,204.432948588,4.791,208.5912,9.1532,9.14293859412,1.80078
2023-12-01T09:15:05Z,13.46736,4.859203,0.0,100.1019,0,1156,8.859199,6.287274,11.1524,43690,0.0,1017.186,0.0,10.66,1015.385,0,202.861947487,5.402,197.9424,8.5848,8.71330159763,1.80078
2023-12-01T09:30:09Z,13.45631,4.655605,0.0,100.1358,0,1156,7.5264,6.41605,11.1132,43690,0.0,1017.186,0.0,9.92,1015.385,0,203.398272675,5.368,198.9543,8.5946,8.62515269412,1.80078
2023-12-01T09:45:10Z,13.45631,4.825272,0.0,100.1697,0,1156,9.408,6.524494,12.0344,43690,0.0,1017.186,0.0,12.03,1015.385,0,204.478811693,6.284,202.3513,8.379,8.49498565294,1.80078
2023-12-01T10:00:11Z,13.45631,4.994934,0.0,100.1697,0,1156,9.956799,6.635197,11.2308,43690,0.0,1017.186,0.0,11.23,1015.385,0,205.096803043,4.995,207.6998,8.9866,8.99732215882,1.80078
2023-12-01T10:15:08Z,13.45078,4.961002,0.0,100.1358,0,1156,9.760799,6.70071,11.1916,43690,0.0,1017.756,0.0,11.13,1015.955,0,205.706437394,5.131,203.9414,8.937599,8.95418434911,1.80078
2023-12-01T10:30:09Z,13.45078,5.096733,0.0,100.1019,0,1156,7.6244,6.786564,13.0928,43690,0.0,1017.756,0.0,11.41,1015.955,0,206.209372977,5.572,204.1582,9.623599,9.61760451765,1.80078
2023-12-01T10:45:10Z,13.45078,5.164596,0.0,100.1697,0,1156,8.036,6.874676,11.3092,43690,0.0,1017.756,0.0,10.9,1015.955,0,206.784087253,5.232,213.5542,8.771,8.8338351,1.80078
2023-12-01T11:00:12Z,13.44525,5.197616,0.0,100.1338,0,1156,7.9772,6.940197,11.0348,43690,0.0,1017.756,0.0,9.07,1015.955,0,207.81208458,6.454,210.2011,8.33,8.36919978824,1.80078
2023-12-01T11:15:08Z,13.45066,5.16439,0.0,100.1353,0,1156,7.565599,6.897266,11.27,43690,0.0,1018.072,0.0,9.41,1016.271,0,207.824743671,5.877,202.0854,8.33,8.49967320118,1.80078
2023-12-01T11:30:11Z,13.45077,5.36816,0.000965467,100.1357,0,1156,8.7808,6.852085,11.466,43690,0.06758269,1018.072,4.827335e-06,9.11,1016.271,0,205.921759659,5.504,214.7346,8.036,8.11278571765,1.80078
2023-12-01T11:45:13Z,13.44524,5.571758,0.001448065,100.1357,0,1156,8.3888,6.98312,10.8192,43690,0.1013645,1018.072,7.240322e-06,10.82,1016.271,0,206.597287361,5.64,201.3634,8.7906,8.77365158824,1.80078
2023-12-01T12:00:10Z,13.43395,5.637535,0.003861433,100.1651,0,1156,11.3876,7.136746,12.0344,43690,0.2703003,1018.072,1.930716e-05,12.03,1016.271,0,204.406349373,5.842,198.3187,9.6628,9.56387193491,1.80078
2023-12-01T12:15:12Z,13.4316,5.736401,0.01544571,100.1247,0,1156,6.86,7.310711,11.5444,43690,1.0812,1018.221,7.722854e-05,10.09,1016.42,0,205.390154052,7.195,206.1833,9.1433995,9.20208446471,1.80078
2023-12-01T12:30:15Z,13.43082,5.897423,0.02027249,100.1059,0,1156,10.5448,7.486934,11.074,43690,1.419074,1018.221,0.0001013625,10.11,1016.42,0,205.300388431,6.101,202.604,8.9866,8.82622569412,1.80078
2023-12-01T12:45:12Z,13.41904,6.203556,0.02316856,100.1077,0,1156,10.1136,7.66315,12.0736,43690,1.621799,1018.221,0.0001158428,11.56,1016.42,0,204.420871068,6.271,199.1153,9.3492,9.34177729586,1.80078
2023-12-01T13:00:14Z,13.4186,6.30267,0.04344105,100.1359,0,1156,9.1532,7.861965,11.564,43690,3.040874,1018.221,0.0002172053,11.56,1016.42,0,206.268166289,6.642,205.149,9.329599,9.29408917647,1.80078
2023-12-01T13:15:11Z,13.41307,6.336514,0.05936944,100.1357,0,1156,7.3892,8.058522,11.8972,43690,4.155861,1017.663,0.0002968472,10.96,1015.863,0,207.221480925,6.404,206.5455,9.133599,9.02840928402,1.80078
2023-12-01T13:30:13Z,13.40754,6.370434,0.08060729,100.1018,0,1156,8.9572,8.257336,10.78,43690,5.64251,1017.663,0.0004030364,9.229999,1015.863,0,205.350915683,6.879,207.1476,8.6925995,8.65708914706,1.80078
2023-12-01T13:45:15Z,13.40202,6.438278,0.0936396,100.1357,0,1156,8.192799,8.478741,9.3884,43690,6.554772,1017.663,0.000468198,9.059999,1015.863,0,205.007613052,7.083,213.8189,8.1536,8.06078798824,1.80078
2023-12-01T14:00:12Z,13.39097,6.709648,0.1332192,100.1357,0,1156,7.252,8.745334,10.486,43690,9.325346,1017.663,0.0006660961,8.86,1015.863,0,206.703731493,6.879,208.0869,8.486799,8.39285892308,1.80078
2023-12-01T14:15:15Z,13.38545,6.913174,0.1114981,100.1357,0,1156,8.192799,9.05711,10.7996,43690,7.804863,1018.07,0.0005574902,10.8,1016.269,0,209.922253774,7.999001,229.0401,8.1536,8.33472688235,1.80078
2023-12-01T14:30:12Z,13.37992,8.473557,0.1110103,100.1018,0,1156,8.3692,9.278515,10.29,43690,7.770722,1018.07,0.0005550516,8.96,1016.269,0,210.633589866,8.639999,211.7477,8.3692,8.27537498225,1.80078
2023-12-01T14:45:15Z,13.37354,7.38641,0.1597424,100.1322,0,1156,6.86,9.502186,10.5056,43690,11.18197,1018.07,0.000798712,9.74,1016.269,0,212.503399225,7.862001,204.2744,8.5162,8.48184207059,1.80078
2023-12-01T15:00:17Z,13.36682,9.043366,0.2557764,100.1217,0,1156,8.251599,9.816219,9.721599,43690,17.90435,1018.07,0.001278882,9.41,1016.269,0,213.32701577,9.04,220.4594,7.996799,7.99979744706,1.80078
2023-12-01T15:15:14Z,13.34911,8.022583,0.2533268,100.1149,0,1156,7.663599,10.26807,9.956799,43690,17.73288,1018.16,0.001266634,9.66,1016.359,0,217.406260703,8.67,225.4769,8.33,8.29184355621,1.80078
2023-12-01T15:30:17Z,13.32572,8.355598,0.5129141,100.1361,0,1156,7.252,10.99329,9.702,43690,35.90398,1018.16,0.00256457,9.679999,1016.359,0,221.839536517,8.59,225.978,8.241799,8.27004683529,1.80078
2023-12-01T15:45:15Z,13.30359,9.133514,0.5109082,100.0981,0,1156,6.4288,11.90828,8.9964,43690,35.76357,1018.16,0.002554541,7.918,1016.359,0,223.379453595,9.37,225.6317,7.271599,7.23321162722,1.80078
2023-12-01T16:00:18Z,13.27724,9.594094,0.5619486,100.0696,0,1156,7.4872,12.83684,8.0164,43690,39.33641,1018.16,0.002809743,7.585001,1016.359,0,225.743179721,9.66,227.8538,6.272,6.24213875882,1.80078
2023-12-01T16:15:16Z,13.27701,8.57631,0.4833172,100.0679,0,1156,8.212401,13.3994,9.1924,43690,33.8322,1017.645,0.002416586,9.189999,1015.845,0,226.335514443,8.58,222.9642,7.4872,7.43559030769,1.80078
2023-12-01T16:30:15Z,13.277,8.881378,0.2267056,100.1017,0,1156,9.2316,13.3994,10.4076,43690,15.86939,1017.645,0.001133528,10.23,1015.845,0,227.123752836,9.08,213.4574,8.859199,8.81686844379,1.80078
2023-12-01T16:45:19Z,13.28252,8.610191,0.4239878,100.1017,0,1156,9.7804,13.32936,13.1124,43690,29.67914,1017.645,0.002119939,13.11,1015.845,0,227.923264254,8.809999,235.6238,9.819599,9.89938332941,1.80078
2023-12-01T17:00:18Z,13.277,8.711887,0.3902231,100.1356,0,1156,9.898,13.25932,11.956,43690,27.31562,1017.645,0.001951115,10.82,1015.845,0,227.343981295,8.679999,220.6296,10.0352,9.95471230769,1.80078
2023-12-01T17:15:16Z,13.28252,8.745785,0.3521172,100.1695,0,1156,10.6624,13.14183,11.6228,43690,24.64821,1017.313,0.001760586,10.94,1015.512,0,226.109087982,8.809999,218.4153,9.6628,9.57929686391,1.80078
2023-12-01T17:30:20Z,13.28252,8.542393,0.3400584,100.1695,0,1156,9.7804,13.00177,11.956,43690,23.80409,1017.313,0.001700292,11.96,1015.512,0,225.189987021,8.809999,228.933,9.8784,9.88185857647,1.80078
2023-12-01T17:45:16Z,13.28804,8.474598,0.3183526,100.1356,0,1156,10.6232,12.88428,11.6424,43690,22.28468,1017.313,0.001591763,11.35,1015.512,0,229.755305861,8.58,235.8404,10.0744,10.0001749822,1.80078
2023-12-01T18:00:19Z,13.28804,8.542393,0.3009879,100.0678,0,1156,9.309999,12.7668,11.8188,43690,21.06915,1017.313,0.00150494,10.33,1015.512,0,228.731984683,8.71,225.1062,9.5745995,9.58889626471,1.80078
2023-12-01T18:15:21Z,13.28804,8.474598,0.2701173,100.1356,0,1156,8.6632,12.69677,11.1916,43690,18.90821,1016.581,0.001350587,10.47,1014.78,0,230.537912511,8.51,229.3421,9.319799,9.25281383529,1.80078
2023-12-01T18:30:18Z,13.28804,8.271206,0.2426233,100.1017,0,1156,9.9764,12.65158,10.9172,43690,16.98363,1016.581,0.001213116,9.639999,1014.78,0,227.092283266,8.58,221.9292,8.7612,8.686395,1.80078
2023-12-01T18:45:21Z,13.29356,8.237309,0.2151292,100.1017,0,1156,9.0356,12.55669,10.094,43690,15.05904,1016.581,0.001075646,9.979999,1014.78,0,229.861931814,8.41,230.1604,8.633799,8.53914327059,1.80078
2023-12-01T19:00:23Z,13.29909,8.203411,0.1784704,100.1017,0,1156,9.309999,12.39402,10.78,43690,12.49293,1016.581,0.0008923519,9.88,1014.78,0,230.097849465,8.78,222.2421,8.486799,8.37934565294,1.80078
2023-12-01T19:15:20Z,13.29909,8.203411,0.1476055,100.1017,0,1156,9.760799,12.11614,10.9956,43690,10.33238,1016.906,0.0007380274,10.94,1015.105,0,227.787575386,8.269999,236.6106,9.2512,9.117363,1.80078
2023-12-01T19:30:23Z,13.31013,8.000023,0.1143207,100.0678,0,1156,7.7224,11.79306,10.6036,43690,8.002449,1016.906,0.0005716035,10.53,1015.105,0,229.765246219,8.47,225.395,8.5848,8.57073384118,1.80078
2023-12-01T19:45:20Z,13.32465,7.810036,0.06030387,100.1298,0,1156,7.271599,11.38188,10.1724,43690,4.22127,1016.906,0.0003015193,9.349999,1015.105,0,233.039946002,8.28,248.3772,8.0752,8.0944518284,1.80078
2023-12-01T20:00:24Z,13.34774,7.473644,0.03039831,100.1016,0,1156,5.1156,10.7877,9.113999,43690,2.127882,1016.906,0.0001519916,7.115,1015.105,0,239.978904912,7.575,235.8718,7.1442,7.03732218824,1.80078
2023-12-01T20:15:23Z,13.35881,7.338074,0.01351042,100.1356,0,1156,4.3316,10.10992,6.9188,43690,0.9457295,1017.975,6.75521e-05,5.116,1016.174,0,247.589104369,7.508,266.2078,5.1352,5.11594791716,1.80078
2023-12-01T20:30:21Z,13.37713,7.243138,0.005308274,100.1161,0,1156,4.4688,9.502186,6.1152,43690,0.3715792,1017.975,2.654137e-05,4.665,1016.174,0,247.550984463,7.141,238.6511,4.2532,4.25969467456,1.80078
2023-12-01T20:45:20Z,13.39626,7.997677,0.001447992,100.1337,0,1156,3.1948,8.944149,5.9584,43690,0.1013594,1017.975,7.239958e-06,4.332,1016.174,0,246.665793374,8.099999,241.4866,3.822,3.75195029586,1.80078
2023-12-01T21:00:24Z,13.40753,8.100384,0.0,100.1017,0,1156,3.6652,8.413227,5.684,43690,0.0,1017.975,0.0,4.92,1016.174,0,248.611898673,8.24,244.2129,3.724,3.72780470588,1.80078
2023-12-01T21:15:22Z,13.40754,8.134323,0.0,100.0678,0,1156,2.548,8.058522,5.684,43690,0.0,1018.069,0.0,5.057,1016.268,0,246.881891369,8.2,265.0217,4.1748,4.13849940828,1.80078
2023-12-01T21:30:25Z,13.41859,7.761189,0.0,100.1018,0,1156,3.0576,7.751262,4.1552,43690,0.0,1018.069,0.0,3.391,1016.268,0,253.269913754,7.931,250.5953,2.9008,2.90748705882,1.80078
2023-12-01T21:45:23Z,13.43009,7.693764,0.0,100.1366,0,1156,2.4696,7.421414,3.3516,43690,0.0,1018.069,0.0,3.116,1016.268,0,247.928722791,7.762001,232.4861,2.254,2.2754556213,1.80078
2023-12-01T22:00:26Z,13.4424,7.597229,0.0,100.1476,0,1156,1.8816,7.071232,3.2732,43690,0.0,1018.069,0.0,2.332,1016.268,0,244.135698829,7.664001,238.8947,1.7444,1.75270117588,1.80078
2023-12-01T22:15:24Z,13.44511,7.539009,0.0,100.1,0,1156,0.882,6.743641,2.548,43690,0.0,1018.619,0.0,1.999,1016.818,0,233.783754051,7.539001,208.1055,1.6072,1.59339881657,1.80078
2023-12-01T22:30:21Z,13.4563,7.234459,0.0,100.1357,0,1156,3.0968,6.481564,3.4888,43690,0.0,1018.619,0.0,2.999,1016.818,0,228.208505782,7.472,237.4777,2.1756,2.10137514793,1.80078
2023-12-01T22:45:26Z,13.4563,8.048851,0.0,100.1357,0,1156,2.94,6.41605,4.5668,43690,0.0,1018.619,0.0,4.312,1016.818,0,224.113556255,7.981001,224.0101,3.6848,3.56835294118,1.80078
2023-12-01T23:00:25Z,13.45077,7.811322,0.0,100.1357,0,1156,2.9792,6.524494,4.4492,43690,0.0,1018.619,0.0,3.156,1016.818,0,212.52351298,8.01,202.8812,3.3908,3.35426745562,1.80078
2023-12-01T23:15:24Z,13.4563,7.438061,0.0,100.1018,0,1156,1.4308,6.395718,3.2732,43690,0.0,1018.652,0.0,1.901,1016.851,0,187.350598717,7.438,143.6864,1.7836,1.71772544083,1.80078
2023-12-01T23:30:24Z,13.45077,7.67559,0.0,100.1696,0,1156,2.2736,6.41605,3.2536,43690,0.0,1018.652,0.0,2.94,1016.851,0,190.450902355,7.743001,201.6284,2.6068,2.52770414201,1.80078
2023-12-01T23:45:24Z,13.4563,7.098732,0.0,100.1357,0,1156,1.8816,6.330196,2.7832,43690,0.0,1018.652,0.0,2.293,1016.851,0,215.537464575,7.201,236.6345,2.2932,2.10473846036,1.80078
2023-12-02T00:00:24Z,13.47288,6.114681,0.0,100.1018,0,1156,0.392,6.047787,1.96,43690,0.0,1018.652,0.0,1.862,1016.851,0,218.865707338,6.149,250.4153,1.176,1.11186507988,1.80078
2023-12-02T00:15:24Z,13.47288,7.505928,0.0,100.0678,0,1156,5.4292,5.939342,5.978,43690,0.0,1018.407,0.0,5.978,1016.607,0,200.00516901,7.506001,206.7119,2.8028,2.73553372722,1.80078
2023-12-02T00:30:24Z,13.46735,6.657608,0.0,100.1357,0,1156,4.4492,6.113308,6.1152,43690,0.0,1018.407,0.0,5.057,1016.607,0,213.292573361,8.15,212.1808,4.5472,4.55891360947,1.80078
2023-12-02T00:45:26Z,13.4563,6.895138,0.0,100.1696,0,1156,5.4684,6.330196,6.3504,43690,0.0,1018.407,0.0,6.037,1016.607,0,218.357951031,6.759,218.758,5.0176,5.07176094675,1.80078
2023-12-02T01:00:25Z,13.44524,6.657608,0.0,100.1018,0,1156,4.7628,6.612598,5.7624,43690,0.0,1018.407,0.0,5.488,1016.607,0,217.174861678,6.759,215.7224,4.704,4.6747739645,1.80078
2023-12-02T01:15:25Z,13.44524,6.318279,0.0,100.1357,0,1156,2.8616,6.766231,5.2724,43690,0.0,1018.652,0.0,4.116,1016.851,0,198.897892771,6.42,185.7034,3.92,4.01742011834,1.80078
2023-12-02T01:30:29Z,13.44524,5.97895,0.0,100.1357,0,1156,3.1948,6.831753,3.6652,43690,0.0,1018.652,0.0,3.234,1016.851,0,192.556830337,6.115,192.8829,2.989,2.92247529412,1.80078
2023-12-02T01:45:27Z,13.44524,5.84322,0.0,100.1357,0,1156,3.1556,6.786564,3.5476,43690,0.0,1018.652,0.0,3.548,1016.851,0,205.58249273,5.945,217.0474,2.9792,2.97746035503,1.80078
2023-12-02T02:00:26Z,13.45077,5.945019,0.0,100.1357,0,1156,3.0576,6.786564,4.3512,43690,0.0,1018.977,0.0,3.548,1017.177,0,208.451435812,5.945,212.1326,3.4104,3.34208994083,1.80078
2023-12-02T02:15:30Z,13.45077,5.97895,0.0,100.1696,0,1156,4.2336,6.852085,5.0568,43690,0.0,1018.977,0.0,4.88,1017.177,0,210.363283147,6.013,206.3264,4.0376,4.01258117647,1.80078
2023-12-02T02:30:27Z,13.45077,5.911056,0.0,100.1017,0,1156,2.9596,6.874676,4.508,43690,0.0,1018.977,0.0,3.352,1017.177,0,207.735604142,6.047,202.7847,3.4104,3.37757869822,1.80078
2023-12-02T02:45:29Z,13.44524,6.148495,0.0,100.0676,0,1156,5.096,6.897266,4.802,43690,0.0,1018.977,0.0,4.39,1017.177,0,210.245922398,6.148,216.7578,3.1948,3.20725176471,1.80078
2023-12-02T03:00:31Z,13.43972,6.114441,0.0,100.1352,0,1156,4.4492,6.98312,5.3704,43690,0.0,1019.056,0.0,4.449,1017.255,0,209.180883307,6.182,200.9286,4.0964,4.13940470588,1.80078
2023-12-02T03:15:29Z,13.43359,5.943664,0.0,100.1328,0,1156,3.3124,7.093822,5.0568,43690,0.0,1019.056,0.0,4.763,1017.255,0,207.021333579,6.283,205.4289,4.1356,4.10741775148,1.80078
2023-12-02T03:30:31Z,13.43165,6.142349,0.0,100.1221,0,1156,2.9988,7.202266,4.6256,43690,0.0,1019.056,0.0,3.234,1017.255,0,207.46658857,6.143,205.3348,3.2242,3.24426117647,1.80078
2023-12-02T03:45:29Z,13.43155,6.140396,0.0,100.1179,0,1156,3.0772,7.24519,4.2924,43690,0.0,1019.056,0.0,3.704,1017.255,0,205.056273576,6.209,207.9276,3.332,3.37699881657,1.80078
2023-12-02T04:00:32Z,13.42577,6.442684,0.0,100.0774,0,1156,2.842,7.398822,4.1552,43690,0.0,1017.549,0.0,3.724,1015.748,0,205.687093484,6.443,203.0966,3.2144,3.21636,1.80078
2023-12-02T04:15:29Z,13.41922,6.507298,0.0,100.1383,0,1156,3.0184,7.552448,3.92,43690,0.0,1017.549,0.0,3.469,1015.748,0,208.177343696,6.609,215.2453,3.1752,3.15084497041,1.80078
2023-12-02T04:30:32Z,13.41872,6.438522,0.0,100.1023,0,1156,3.4496,7.728672,4.1356,43690,0.0,1017.549,0.0,4.136,1015.748,0,218.796819405,6.574,225.2842,3.2732,3.27412235294,1.80078
2023-12-02T04:45:29Z,13.41307,6.438278,0.0,100.1357,0,1156,3.3908,7.861965,4.5864,43690,0.0,1017.549,0.0,3.9,1015.748,0,213.291682958,6.472,205.7266,3.8808,3.87407337278,1.80078
2023-12-02T05:00:32Z,13.40754,6.404354,0.0,100.1357,0,1156,2.646,7.97041,3.6652,43690,0.0,1017.825,0.0,3.136,1016.025,0,207.587933576,6.404,203.246,2.9792,2.97931529412,1.80078
2023-12-02T05:15:34Z,13.40754,6.540039,0.0,100.1357,0,1156,2.8812,8.015598,3.4692,43690,0.0,1017.825,0.0,3.058,1016.025,0,210.147842875,6.54,203.8722,2.9792,2.94507294118,1.80078
2023-12-02T05:30:30Z,13.40754,6.472198,0.0,100.1357,0,1156,4.6844,8.058522,4.6844,43690,0.0,1017.825,0.0,4.684,1016.025,0,206.573032754,6.642,216.0828,3.1556,3.24095857988,1.80078
2023-12-02T05:45:31Z,13.41307,7.727287,0.0,100.0679,0,1156,6.2328,8.10371,6.2328,43690,0.0,1017.825,0.0,6.056,1016.025,0,205.696804954,7.863,197.2731,5.1352,5.13646823529,1.80078
2023-12-02T06:00:32Z,13.41307,6.336514,0.0,100.1018,0,1156,4.7236,8.10371,6.86,43690,0.0,1017.581,0.0,5.233,1015.78,0,200.615970502,6.54,200.1632,5.3018,5.35852467059,1.80078
2023-12-02T06:15:34Z,13.41307,6.336514,0.0,100.1018,0,1156,2.7636,8.058522,5.194,43690,0.0,1017.581,0.0,3.881,1015.78,0,199.83995536,6.404,196.7673,3.7632,3.74164,1.80078
2023-12-02T06:30:30Z,13.41859,6.268669,0.0,100.1018,0,1156,2.9008,8.015598,3.4888,43690,0.0,1017.581,0.0,2.94,1015.78,0,191.913908457,6.404,190.361,2.7636,2.72961893491,1.80078
2023-12-02T06:45:33Z,13.41859,7.693367,0.0,100.1018,0,1156,2.6656,7.97041,3.3516,43690,0.0,1017.581,0.0,3.352,1015.78,0,199.294669199,7.863,204.8114,2.7048,2.69938117647,1.80078
2023-12-02T07:00:35Z,13.41859,7.693367,0.0,100.1018,0,1156,2.0972,7.97041,3.0968,43690,0.0,1018.151,0.0,2.744,1016.35,0,200.219003574,7.693,196.9359,2.45,2.47017647059,1.80078
2023-12-02T07:15:31Z,13.41307,7.489838,0.0,100.1357,0,1156,0.7448,7.97041,2.0188,43690,0.0,1018.151,0.0,1.235,1016.35,0,192.433886385,7.592001,193.2511,1.078,0.960631943195,1.80078
2023-12-02T07:30:33Z,13.41307,7.218468,0.0,100.1357,0,1156,1.0584,7.950077,2.7048,43690,0.0,1018.151,0.0,1.372,1016.35,0,140.381655762,7.354001,97.01088,1.0486,1.03176704706,1.80078